QZS-4 (QZSS/PRN 195)

Last updated on Thu Sep 10 2026 00:03:26 GMT+0000 (Coordinated Universal Time)

1 42965U 17062A 26251.51143888 -.00000331 00000+0 00000+0 0 9992 2 42965 40.0539 342.4222 0749911 269.5653 60.3602 1.00275068 32635
UTC large
Height (km)
Speed (km/s)
/
Latitude / Longitude
Inclination (degrees)
Orbital Period (minutes)
Azimuth
Elevation
Range (km)
Doppler Factor

Next 0 passes for location: London (51.5072 / 0.1276)

No passes found over London.
QZS-4 (QZSS/PRN 195)